CW5456 Hansville WA US current weather conditions

sailwx.info

Wind from 355 at 7 knots gusting 11

Air temperature 15.6° C
Dewpoint 12.7° C

Last reported at 2014-Sep-02 01:49 UTC.
Time now 2014-Sep-02 02:21 UTC

Location: N 47°55' W 122°35'.
View on Google Maps.

See reports from other nearby stations

  
Tides and Currents Weather Stations Pressure Air Temp Water Temp Dewpoint Dewpoint Depression Visibility Wind Speed Wind Dir Waves Ship Positions
date/time (UTC)wind fromknots sea level pressurealtimeterstation pressurevisibilityair tempwater tempwave heightnotes
2014-Sep-02 01:49 355 7 gusting 11 15.6
2014-Sep-02 01:44 005 10 gusting 11 15.6
2014-Sep-02 01:19 011 7 gusting 14 16.1
2014-Sep-02 01:14 355 9 gusting 13 16.1
2014-Sep-02 00:49 340 7 gusting 7 18.3
2014-Sep-02 00:44 038 18.3
2014-Sep-02 00:34 038 18.3
2014-Sep-02 00:29 048 0 gusting 2 18.3
2014-Sep-02 00:09 355 0 gusting 5 17.8
2014-Sep-01 23:59 041 1 gusting 2 17.8
2014-Sep-01 23:44 047 17.8
2014-Sep-01 23:39 046 0 gusting 6 17.8
2014-Sep-01 23:09 123 18.3
2014-Sep-01 23:04 057 1 gusting 5 18.3
2014-Sep-01 22:54 075 5 gusting 5 18.9
2014-Sep-01 22:49 048 18.9
2014-Sep-01 22:34 060 1 gusting 6 18.9
2014-Sep-01 22:29 038 2 gusting 5 18.9
2014-Sep-01 22:24 095 0 gusting 2 18.9
2014-Sep-01 22:14 062 0 gusting 6 19.4
2014-Sep-01 22:09 024 0 gusting 6 20.0
2014-Sep-01 21:59 049 0 gusting 3 20.6
2014-Sep-01 21:49 059 1 gusting 6 20.6
2014-Sep-01 21:24 355 2 gusting 3 20.0
2014-Sep-01 21:19 325 20.0
2014-Sep-01 21:09 015 19.4
2014-Sep-01 20:54 017 19.4
2014-Sep-01 20:49 345 3 gusting 8 19.4
2014-Sep-01 20:44 288 0 gusting 8 19.4
2014-Sep-01 20:34 064 3 gusting 7 19.4
2014-Sep-01 20:29 053 18.9
2014-Sep-01 20:19 181 3 gusting 6 18.9
2014-Sep-01 20:14 046 5 gusting 6 18.3
2014-Sep-01 19:54 032 1 gusting 6 18.3
2014-Sep-01 19:24 038 0 gusting 6 17.8
2014-Sep-01 18:54 064 1 gusting 6 17.2
2014-Sep-01 18:44 069 17.2
2014-Sep-01 18:39 014 2 gusting 8 17.2
2014-Sep-01 18:24 042 1 gusting 7 17.8
2014-Sep-01 18:19 065 5 gusting 5 18.3
2014-Sep-01 18:14 038 2 gusting 5 18.3
2014-Sep-01 18:04 040 1 gusting 6 18.3
2014-Sep-01 17:59 083 5 gusting 8 17.8
2014-Sep-01 17:44 146 16.7
2014-Sep-01 17:39 212 16.1
2014-Sep-01 17:34 168 1 gusting 3 16.1
2014-Sep-01 17:29 005 1 gusting 3 15.6
2014-Sep-01 17:24 071 1 gusting 3 15.6
2014-Sep-01 16:59 005 15.0
2014-Sep-01 16:44 051 14.4
2014-Sep-01 16:39 051 14.4
2014-Sep-01 16:34 051 1 gusting 2 14.4
2014-Sep-01 16:24 063 0 gusting 2 14.4
2014-Sep-01 16:19 063 1 gusting 3 14.4
2014-Sep-01 15:54 082 14.4
2014-Sep-01 15:44 159 1 gusting 2 14.4
2014-Sep-01 14:59 199 0 gusting 0 13.9
2014-Sep-01 14:44 200 13.3
2014-Sep-01 14:39 200 13.3
2014-Sep-01 14:34 199 13.3
2014-Sep-01 14:09 199 13.3
2014-Sep-01 13:59 199 13.3
2014-Sep-01 13:34 199 13.3
2014-Sep-01 13:29 200 13.3
2014-Sep-01 13:24 200 1 gusting 3 13.3
2014-Sep-01 13:14 200 0 gusting 2 13.3
2014-Sep-01 12:54 200 2 gusting 5 13.3
2014-Sep-01 12:34 205 1 gusting 2 13.9
2014-Sep-01 12:24 205 13.9
2014-Sep-01 12:14 205 13.9
2014-Sep-01 12:09 205 13.9
2014-Sep-01 11:39 205 14.4
2014-Sep-01 11:24 205 14.4
2014-Sep-01 11:04 205 14.4
2014-Sep-01 10:44 205 14.4
2014-Sep-01 10:39 205 14.4
2014-Sep-01 10:34 205 14.4
2014-Sep-01 10:29 205 14.4
2014-Sep-01 10:19 205 14.4
2014-Sep-01 10:09 205 0 gusting 3 14.4
2014-Sep-01 10:04 205 2 gusting 3 14.4
2014-Sep-01 09:59 206 2 gusting 5 14.4
2014-Sep-01 09:54 206 3 gusting 5 14.4
2014-Sep-01 09:09 205 2 gusting 3 14.4
2014-Sep-01 08:39 204 14.4
2014-Sep-01 08:29 204 3 gusting 5 14.4
2014-Sep-01 08:24 222 2 gusting 3 14.4
2014-Sep-01 08:19 223 3 gusting 3 14.4
2014-Sep-01 07:54 344 14.4
2014-Sep-01 07:49 344 14.4
2014-Sep-01 07:34 344 14.4
2014-Sep-01 07:29 344 14.4
2014-Sep-01 07:24 344 14.4
2014-Sep-01 07:19 344 14.4
2014-Sep-01 07:09 344 14.4
2014-Sep-01 07:04 344 14.4
2014-Sep-01 06:44 344 14.4
2014-Sep-01 06:34 344 14.4
2014-Sep-01 06:19 344 14.4
2014-Sep-01 06:09 344 14.4
2014-Sep-01 05:59 344 14.4
2014-Sep-01 05:49 344 14.4
2014-Sep-01 05:34 344 14.4
2014-Sep-01 05:24 344 14.4
2014-Sep-01 05:14 344 14.4
2014-Sep-01 04:59 345 0 gusting 1 14.4
2014-Sep-01 04:54 344 13.9
2014-Sep-01 04:34 344 1 gusting 2 13.9
2014-Sep-01 04:14 322 0 gusting 3 13.9
2014-Sep-01 03:59 341 14.4
2014-Sep-01 03:54 341 14.4
2014-Sep-01 03:29 061 14.4
2014-Sep-01 03:24 311 1 gusting 5 15.0
2014-Sep-01 03:14 335 5 gusting 6 15.0
2014-Sep-01 02:29 327 0 gusting 3 15.0
2014-Sep-01 01:54 340 5 gusting 6 16.1
2014-Sep-01 01:14 343 16.1
2014-Sep-01 01:04 343 16.1
2014-Sep-01 00:59 343 16.1
2014-Sep-01 00:54 342 1 gusting 1 16.7
2014-Sep-01 00:19 342 16.7
2014-Sep-01 00:04 343 16.7
2014-Aug-31 23:59 342 16.7
2014-Aug-31 23:49 346 17.8
2014-Aug-31 23:34 345 17.2
2014-Aug-31 23:29 346 0 gusting 3 16.7
2014-Aug-31 23:19 345 16.7
2014-Aug-31 23:14 345 1 gusting 3 16.7
2014-Aug-31 22:44 310 0 gusting 2 17.2
2014-Aug-31 22:34 310 17.2
2014-Aug-31 22:19 309 1 gusting 2 17.8
2014-Aug-31 22:14 309 17.8
2014-Aug-31 22:04 295 18.3
2014-Aug-31 21:54 295 2 gusting 2 18.3
2014-Aug-31 21:39 287 1 gusting 2 18.3
2014-Aug-31 21:34 287 0 gusting 2 18.3
2014-Aug-31 21:09 160 18.3
2014-Aug-31 20:34 327 17.8
2014-Aug-31 20:19 327 17.8
2014-Aug-31 20:04 011 17.8
2014-Aug-31 19:54 013 2 gusting 3 17.8
2014-Aug-31 19:49 053 17.2
2014-Aug-31 19:29 072 2 gusting 5 17.2
2014-Aug-31 19:14 015 2 gusting 2 17.2
2014-Aug-31 18:44 029 2 gusting 5 17.2
2014-Aug-31 18:39 038 2 gusting 5 17.8
2014-Aug-31 18:29 184 2 gusting 3 17.8
2014-Aug-31 18:24 211 17.2
2014-Aug-31 18:09 294 1 gusting 5 17.2
2014-Aug-31 17:24 194 1 gusting 7 15.6
2014-Aug-31 16:59 227 14.4
2014-Aug-31 16:54 059 0 gusting 2 14.4
2014-Aug-31 16:34 064 0 gusting 3 15.0
2014-Aug-31 16:24 202 15.0
2014-Aug-31 16:14 165 1 gusting 6 15.0
2014-Aug-31 16:09 204 1 gusting 5 15.0
2014-Aug-31 15:49 167 14.4
2014-Aug-31 15:34 200 2 gusting 3 14.4
2014-Aug-31 15:29 219 14.4
2014-Aug-31 15:19 178 1 gusting 5 14.4
2014-Aug-31 14:54 223 13.9
2014-Aug-31 14:44 223 13.9
2014-Aug-31 14:24 222 13.3
2014-Aug-31 14:14 223 13.3
2014-Aug-31 14:09 223 13.3
2014-Aug-31 14:04 222 13.3
2014-Aug-31 13:59 222 13.3
2014-Aug-31 13:44 223 13.3
2014-Aug-31 13:34 223 1 gusting 2 12.8
2014-Aug-31 13:29 223 12.8
2014-Aug-31 13:24 214 12.8
2014-Aug-31 12:49 121 13.3
2014-Aug-31 12:39 182 3 gusting 3 13.3
2014-Aug-31 12:14 219 0 gusting 3 13.3
2014-Aug-31 12:09 224 13.3
2014-Aug-31 11:54 219 0 gusting 6 13.3
2014-Aug-31 11:49 223 2 gusting 6 13.9
2014-Aug-31 11:34 194 2 gusting 6 13.9
2014-Aug-31 11:14 217 2 gusting 6 13.9
2014-Aug-31 10:59 155 5 gusting 10 13.9
2014-Aug-31 10:54 175 5 gusting 7 13.9
2014-Aug-31 10:34 194 1 gusting 9 13.9
2014-Aug-31 10:04 203 3 gusting 9 14.4
2014-Aug-31 09:54 207 3 gusting 6 14.4
2014-Aug-31 09:49 194 14.4
2014-Aug-31 09:44 188 2 gusting 6 14.4
2014-Aug-31 09:39 161 2 gusting 6 14.4
2014-Aug-31 09:29 142 2 gusting 3 14.4
2014-Aug-31 09:24 141 14.4
2014-Aug-31 09:19 138 0 gusting 2 15.0
2014-Aug-31 09:14 161 15.0
2014-Aug-31 08:59 191 1 gusting 5 15.0
2014-Aug-31 08:49 190 2 gusting 3 15.0
2014-Aug-31 08:44 159 1 gusting 3 15.0
2014-Aug-31 08:39 168 2 gusting 3 15.0
2014-Aug-31 08:34 175 1 gusting 2 15.0
2014-Aug-31 08:29 175 0 gusting 1 15.0
2014-Aug-31 08:24 175 1 gusting 3 15.0
2014-Aug-31 08:19 176 15.0
2014-Aug-31 08:09 190 2 gusting 6 15.0
2014-Aug-31 08:04 169 2 gusting 3 15.0
2014-Aug-31 07:54 167 2 gusting 3 15.0
2014-Aug-31 07:44 206 2 gusting 2 15.0
2014-Aug-31 07:34 294 15.0
2014-Aug-31 07:29 294 15.0
2014-Aug-31 07:24 340 1 gusting 6 15.0
2014-Aug-31 07:14 010 6 gusting 6 15.0
2014-Aug-31 06:49 217 0 gusting 5 15.0
2014-Aug-31 06:44 202 15.0
2014-Aug-31 06:39 261 15.0
2014-Aug-31 06:14 205 15.6
2014-Aug-31 06:04 217 15.6
2014-Aug-31 05:59 217 15.6
2014-Aug-31 05:54 217 15.6
2014-Aug-31 05:44 176 1 gusting 2 15.6
2014-Aug-31 05:39 176 15.6
2014-Aug-31 05:34 176 1 gusting 1 15.6
2014-Aug-31 04:54 228 2 gusting 3 15.6
2014-Aug-31 04:44 240 1 gusting 2 15.6
2014-Aug-31 03:59 334 15.6
2014-Aug-31 03:54 334 15.6
2014-Aug-31 03:49 334 15.6
2014-Aug-31 03:39 337 15.6
2014-Aug-31 03:24 348 3 gusting 6 16.1
2014-Aug-31 03:19 334 3 gusting 7 16.1
2014-Aug-31 03:14 355 5 gusting 8 16.1
2014-Aug-31 03:09 343 1 gusting 8 16.1
2014-Aug-31 03:04 348 5 gusting 7 16.1
2014-Aug-31 02:59 338 6 gusting 10 16.1
2014-Aug-31 02:29 349 16.1
2014-Aug-31 02:19 333 16.1
2014-Aug-31 02:14 333 16.1
2014-Aug-31 02:04 294 0 gusting 7 16.1